User: anonymous   Login
Location: Palomar Mountain Lodge
(33.3110°N, 116.8495°W)
Time: 07:50:36
(UTC-07:00)
Language:

MOZHAYETS 4 - Orbit

View from above orbital plane
View from above orbital plane
View from above satellite
View from above satellite

Ground track
Ground track

The orbit is defined by the following mean orbital elements,

1 27939U          26101.33171389 +.00000000 +00000-0 +10209-3 0 00003
2 27939  98.3468 283.8066 0012360 117.6025   4.6448 14.73347149    06
Epoch (UTC): 11 April 2026 07:57:40
Eccentricity: 0.0012360
inclination: 98.3468°
perigee height: 642 km
apogee height: 659 km
right ascension of ascending node: 283.8066°
argument of perigee: 117.6025°
revolutions per day: 14.73347149
mean anomaly at epoch: 4.6448°

The dashed part of the orbit path shows where the satellite is in the earth's shadow,  

DLR